Location: Newark
(0.5300°S, 127.4800°E)
Time: 21:29:09
(UTC+00:00)

A-11 Canister half - Pass Details

Date: 16 September 2019
Orbit: 1514 x 1686 km, 47.2° (Epoch: 12 October)

Event Time Altitude Azimuth Distance (km) Brightness Sun altitude
Rises 00:25:14 0° 232° (SW) 4,810 11.2 44.9°
Reaches altitude 10° 00:28:32 10° 238° (WSW) 3,798 10.8 45.7°
Maximum altitude 00:37:39 49° 309° (NW) 1,926 9.8 48.0°
Drops below altitude 10° 00:46:30 10° 22° (NNE) 3,679 11.4 50.2°
Sets 00:49:40 0° 28° (NNE) 4,649 11.8 51.0°
